Powrót do katalogu

STARLINK-35784

AktywnyŁącznośćVLEO
NORAD 67093·PAYLOAD·🇺🇸 United States

Wystrzelony Dec 14, 2025 z Vandenberg Space Force Base

Loading…

Następne Przeloty (najbliższe 24 godziny)

TLE

ŚwieżeSource: CelesTrak SupGP

Epoka: Sep 14, 2026, 15:42 UTC

1 67093C 25298U   26257.65465278 -.00054263  00000+0 -45480-2 0  2577
2 67093  69.9995 257.9110 0004076 268.5748 140.3524 14.98350315    15

Śledź STARLINK-35784 w czasie rzeczywistym z AllMySat

Download on the App Store